STARLINK-37488, 68859

Orbit data source: Space-Track

STARLINK-37488, 68859 is a payload satellite owned by SpaceX/Seattle (US) in SSO that was launched on Sun, 26 Apr 2026 UTC via an FALCON 9 launch vehicle from the Air Force Western Test Range (AFWTR). Payload-class satellites include a variety of spacecraft equipped with specific instruments for various scientific and technological missions. These include communications satellites like Starlink; space stations such as the ISS; scientific satellites like the Hubble; Earth observation satellites from companies like Planet Labs, Umbra, and HawkEye 360; GPS; miniature CubeSats for education and research; and military/defense satellites.

Loading next visibility...
Identifier
68859, 2026-094W
Orbit
SSO
Country
Flag of USUS
Related business
Manufacturer
SpaceX/Seattle
Mission
Operational spacecraft
Bus & Motor
STARLINK V2MO, Unknown motor
Mass
575 kg wet, ~530 kg dry
Launch date (UTC)
2026-04-26 (2 months ago)
Launch vehicle
FALCON 9
Launch site
Air Force Western Test Range (AFWTR)
Object type
Payload
Rocket body
Debris
Shape & HBR
Unknown shape, 14.5 m
Radar Cross Section
Large (>1 m²)

Expand to show TLE details & history
Last TLE update: 21 hours ago

TLE from 21 hours ago
0 STARLINK-37488
1 68859U 26094W   26170.98442791  .00017447  00000-0  54123-3 0  9998
2 68859  97.2846 185.4890 0001980 110.6922 249.4533 15.33459512  8486
Epoch: 2026-06-19T23:37Z
TLE epoch observation values (Epoch: 2026-06-19T23:37:34.571Z)
Latitude
-0.00003°
Longitude
-77.1106°
Altitude
469.088 km
Speed
7.631 km/s
True Right ascension
12h 21m 57s
True Declination
0° 00' 00"
Sunlit
Object was in daylight at epoch
Visualization orbit readout
Latitude
Unknown
Longitude
Unknown
Altitude
Unknown
Speed
Unknown
Apparent Right ascension
Unknown
Apparent Declination
Unknown
Sunlit
N/A
Visualization observer readout
Local Sidereal Time
07:15:57
Azimuth
Unknown
Elevation
Unknown
Doppler factor
Unknown
Orbital elements
Apogee altitude
463.797 km
Perigee altitude
461.088 km
Semi-major axis
6,840.58 km
Eccentricity
0.0002
Inclination
97.2846°
RAAN
185.489°
Arg. of periapsis
110.6922°
True anomaly
249.43206°
Mean anomaly
249.4533°
Eccentric anomaly
249.44268°
Mean motion
3.83622 °/min
Orbital period
93.84 mins
BSTAR
0.00054123
Loading maneuver chart data...
Computing Atmospheric mass density...
Loading historical data...
Loading historical data...
Loading historical data...
Loading historical data...
Loading historical data...
Loading historical data...
Loading historical data...

Documentation

Showing up to 5 results
|